Regional Weather Roundup
Issued by NWS

Home | Current Version | Previous Version | Graphics & Text | Print | Product List | Glossary On
Versions: 1 2 3 4 5 6 7 8 9 10 11 12 13 14 15 16 17 18 19 20 21 22 23 24 25 26 27 28 29 30 31 32 33 34 35 36 37 38 39 40 41 42 43 44 45 46 47 48 49 50
000
ASUS44 KMEG 251510
RWRTN
TENNESSEE HOURLY STATE WEATHER ROUNDUP
NATIONAL WEATHER SERVICE MEMPHIS TN
1000 AM CDT FRI JUL 25 2014

TNZ002-004-019-021-049-052-054-088>092-251600-
WEST TENNESSEE

CITY           SKY/WX    TMP DP  RH WIND       PRES   REMARKS
MEMPHIS INTL   MOSUNNY   78  61  55 CALM      30.07S
NWS MEMPHIS      N/A     76 N/A N/A MISG        N/A
JACKSON        MOSUNNY   73  65  75 CALM      30.07F
DYERSBURG      SUNNY     75  59  57 CALM      30.08F
UNION CITY     SUNNY     72  64  78 SE3       30.06F
PARIS          PTSUNNY   72  60  65 SE6       30.08F
LEXINGTON      SUNNY     73  63  68 E3        30.06F
SAVANNAH       MOSUNNY   75  71  87 CALM      30.07S
$$

TNZ008-025-027-028-033-062-065-066-251600-
NORTH MIDDLE TENNESSEE

CITY           SKY/WX    TMP DP  RH WIND       PRES   REMARKS
NASHVILLE      PTSUNNY   77  59  53 CALM      30.09F
DICKSON        SUNNY     73  57  56 E5        30.08F
CLARKSVILLE    PTSUNNY   74  60  61 VRB3      30.08F
LEBANON        SUNNY     76  58  53 CALM      30.07S
SMYRNA         SUNNY     80  61  52 CALM      30.09S
MURFREESBORO   SUNNY     75  60  59 CALM      30.08R
COOKEVILLE     SUNNY     73  63  68 N15G38    30.10S
GALLATIN       SUNNY     75  59  57 SE5       30.09F
CROSSVILLE     PTSUNNY   72  60  66 MISG      30.12S
$$

TNZ061-075-076-078-094-096-097-251600-
SOUTH MIDDLE TENNESSEE

CITY           SKY/WX    TMP DP  RH WIND       PRES   REMARKS
LEWISBURG      SUNNY     76  60  57 E6        30.08R
FAYETTEVILLE   SUNNY     75  61  60 VRB7      30.08F
TULLAHOMA      SUNNY     75  57  53 E3        30.11R
WINCHESTER     SUNNY     79  61  53 S3        30.08F
MCMINNVILLE    SUNNY     75  66  73 CALM      30.10R
COLUMBIA       SUNNY     77  64  65 S3        30.08R
$$

TNZ017-018-042-046-047-251600-
NORTHEAST TENNESSEE

CITY           SKY/WX    TMP DP  RH WIND       PRES   REMARKS
TRI CITIES     MOSUNNY   72  63  73 VRB5      30.10F
ELIZABETHTON   MOSUNNY   73  64  73 CALM      30.10S
$$

TNZ012-013-036-069-073-074-251600-
CENTRAL EAST TENNESSEE

CITY           SKY/WX    TMP DP  RH WIND       PRES   REMARKS
KNOXVILLE      PTSUNNY   72  64  76 CALM      30.08R
OAK RIDGE      SUNNY     74  63  68 N3        30.10S
GATLINBURG     CLOUDY    72  63  73 W3        30.09S
MORRISTOWN     SUNNY     72  64  78 NE5       30.10F
$$

TNZ083-085-099-251600-
SOUTHEAST TENNESSEE

CITY           SKY/WX    TMP DP  RH WIND       PRES   REMARKS
CHATTANOOGA    MOSUNNY   76  64  66 VRB3      30.07F
$$

SKY/WX REPORTED AS FAIR MEANS FEW OR NO CLOUDS BELOW
12 THOUSAND FEET.



USA.gov is the U.S. government's official web portal to all federal, state and local government web resources and services.